Hourly Weather Russkoe

Today, 22 April, Thursday

Time Temperature Precipitation Wind Pressure Humidity
00:00 +13°C° 0 mm 1 mps 752 mmHg 75%
01:00 +13°C° 0.1 mm 1 mps 752 mmHg 77%
02:00 +13°C° 0.1 mm 1 mps 752 mmHg 80%
03:00 +13°C° 0 mm 1 mps 752 mmHg 82%
04:00 +13°C° 0 mm 1 mps 752 mmHg 81%
05:00 +13°C° 0 mm 1 mps 752 mmHg 81%
06:00 +13°C° 0 mm 1 mps 752 mmHg 80%
07:00 +13°C° 0 mm 2 mps 753 mmHg 79%
08:00 +13°C° 0 mm 2 mps 753 mmHg 79%
09:00 +13°C° 0 mm 2 mps 753 mmHg 77%
10:00 +13°C° 0 mm 3 mps 753 mmHg 73%
11:00 +13°C° 0 mm 3 mps 753 mmHg 70%
12:00 +14°C° 0 mm 3 mps 753 mmHg 66%
13:00 +14°C° 0 mm 3 mps 753 mmHg 66%
14:00 +14°C° 0 mm 4 mps 753 mmHg 65%
15:00 +14°C° 0 mm 4 mps 753 mmHg 65%
16:00 +13°C° 0 mm 3 mps 753 mmHg 69%
17:00 +14°C° 0 mm 2 mps 753 mmHg 73%
18:00 +13°C° 0 mm 2 mps 753 mmHg 77%
19:00 +13°C° 0.6 mm 2 mps 753 mmHg 81%
20:00 +12°C° 0.6 mm 2 mps 753 mmHg 86%
21:00 +12°C° 0.6 mm 2 mps 753 mmHg 90%
22:00 +12°C° 1.2 mm 1 mps 753 mmHg 92%
23:00 +12°C° 1.2 mm 1 mps 753 mmHg 94%

Tomorrow, 23 April, Friday

Time Temperature Precipitation Wind Pressure Humidity
00:00 +11°C° 1.2 mm 1 mps 752 mmHg 96%
01:00 +11°C° 2.5 mm 1 mps 752 mmHg 96%
02:00 +11°C° 2.5 mm 1 mps 752 mmHg 97%
03:00 +11°C° 2.5 mm 1 mps 752 mmHg 97%
04:00 +10°C° 2 mm 2 mps 753 mmHg 97%
05:00 +10°C° 2 mm 2 mps 753 mmHg 97%
06:00 +10°C° 2 mm 2 mps 754 mmHg 97%
07:00 +12°C° 1.1 mm 2 mps 754 mmHg 95%
08:00 +11°C° 1.1 mm 3 mps 754 mmHg 93%
09:00 +11°C° 1.1 mm 3 mps 755 mmHg 91%
10:00 +13°C° 0.1 mm 3 mps 754 mmHg 80%
11:00 +16°C° 0.1 mm 3 mps 754 mmHg 68%
12:00 +17°C° 0.1 mm 4 mps 754 mmHg 57%
13:00 +18°C° 0 mm 3 mps 753 mmHg 53%
14:00 +19°C° 0 mm 3 mps 753 mmHg 49%
15:00 +19°C° 0 mm 2 mps 753 mmHg 44%
16:00 +19°C° 0 mm 2 mps 753 mmHg 48%
17:00 +19°C° 0 mm 1 mps 753 mmHg 51%
18:00 +19°C° 0 mm 1 mps 752 mmHg 55%
19:00 +16°C° 0 mm 1 mps 752 mmHg 58%
20:00 +15°C° 0 mm 2 mps 752 mmHg 61%
21:00 +13°C° 0 mm 2 mps 752 mmHg 64%
22:00 +13°C° 0 mm 2 mps 751 mmHg 65%
23:00 +12°C° 0 mm 1 mps 751 mmHg 66%

Day after tomorrow, 24 April, Saturday

Time Temperature Precipitation Wind Pressure Humidity
00:00 +12°C° 0 mm 1 mps 751 mmHg 67%
01:00 +12°C° 0 mm 1 mps 751 mmHg 67%
02:00 +12°C° 0 mm 1 mps 750 mmHg 68%
03:00 +11°C° 0 mm 1 mps 750 mmHg 68%
04:00 +12°C° 0 mm 1 mps 750 mmHg 69%
05:00 +12°C° 0 mm 1 mps 751 mmHg 70%
06:00 +12°C° 0 mm 1 mps 751 mmHg 70%
07:00 +14°C° 0 mm 1 mps 751 mmHg 65%
08:00 +15°C° 0 mm 1 mps 751 mmHg 60%
09:00 +17°C° 0 mm 2 mps 751 mmHg 54%
10:00 +18°C° 0 mm 2 mps 751 mmHg 51%
11:00 +19°C° 0 mm 2 mps 750 mmHg 47%
12:00 +20°C° 0 mm 3 mps 750 mmHg 44%
13:00 +20°C° 0 mm 2 mps 750 mmHg 43%
14:00 +21°C° 0 mm 2 mps 750 mmHg 42%
15:00 +21°C° 0 mm 2 mps 750 mmHg 42%
16:00 +20°C° 0 mm 2 mps 750 mmHg 46%
17:00 +21°C° 0 mm 1 mps 750 mmHg 50%
18:00 +20°C° 0 mm 1 mps 750 mmHg 55%
19:00 +18°C° 0 mm 2 mps 750 mmHg 56%
20:00 +17°C° 0 mm 2 mps 750 mmHg 58%
21:00 +15°C° 0 mm 2 mps 751 mmHg 60%
22:00 +15°C° 0 mm 2 mps 751 mmHg 62%
23:00 +15°C° 0 mm 2 mps 751 mmHg 64%

25 April, Sunday

Time Temperature Precipitation Wind Pressure Humidity
00:00 +15°C° 0 mm 1 mps 751 mmHg 66%
01:00 +15°C° 0 mm 1 mps 751 mmHg 66%
02:00 +14°C° 0 mm 1 mps 751 mmHg 67%
03:00 +14°C° 0 mm 1 mps 751 mmHg 67%
04:00 +14°C° 0 mm 2 mps 751 mmHg 70%
05:00 +14°C° 0 mm 2 mps 751 mmHg 73%
06:00 +12°C° 0 mm 3 mps 751 mmHg 76%
07:00 +13°C° 0 mm 3 mps 751 mmHg 73%
08:00 +14°C° 0 mm 3 mps 751 mmHg 71%
09:00 +15°C° 0 mm 4 mps 751 mmHg 68%
10:00 +17°C° 0 mm 4 mps 751 mmHg 63%
11:00 +18°C° 0 mm 4 mps 750 mmHg 59%
12:00 +19°C° 0 mm 4 mps 750 mmHg 54%
13:00 +20°C° 0 mm 4 mps 749 mmHg 53%
14:00 +20°C° 0 mm 3 mps 749 mmHg 52%
15:00 +20°C° 0 mm 3 mps 748 mmHg 50%
16:00 +20°C° 0 mm 3 mps 748 mmHg 54%
17:00 +19°C° 0 mm 3 mps 748 mmHg 58%
18:00 +19°C° 0 mm 3 mps 747 mmHg 62%
19:00 +18°C° 0 mm 3 mps 748 mmHg 61%
20:00 +17°C° 0 mm 4 mps 748 mmHg 61%
21:00 +15°C° 0 mm 4 mps 748 mmHg 60%
22:00 +14°C° 0 mm 4 mps 748 mmHg 62%
23:00 +14°C° 0 mm 3 mps 748 mmHg 63%

26 April, Monday

Time Temperature Precipitation Wind Pressure Humidity
00:00 +13°C° 0 mm 3 mps 748 mmHg 65%
01:00 +14°C° 0 mm 2 mps 748 mmHg 66%
02:00 +13°C° 0 mm 2 mps 747 mmHg 67%
03:00 +13°C° 0 mm 1 mps 747 mmHg 68%
04:00 +13°C° 0 mm 2 mps 747 mmHg 70%
05:00 +13°C° 0 mm 2 mps 747 mmHg 71%
06:00 +12°C° 0 mm 2 mps 748 mmHg 73%
07:00 +13°C° 0 mm 2 mps 748 mmHg 72%
08:00 +13°C° 0 mm 2 mps 748 mmHg 71%
09:00 +14°C° 0 mm 2 mps 748 mmHg 70%
10:00 +14°C° 0 mm 2 mps 748 mmHg 67%
11:00 +15°C° 0 mm 2 mps 748 mmHg 65%
12:00 +16°C° 0 mm 2 mps 747 mmHg 62%
13:00 +16°C° 0 mm 2 mps 747 mmHg 62%
14:00 +16°C° 0 mm 1 mps 747 mmHg 61%
15:00 +18°C° 0 mm 1 mps 747 mmHg 61%
16:00 +16°C° 0 mm 1 mps 747 mmHg 63%
17:00 +16°C° 0 mm 1 mps 747 mmHg 66%
18:00 +16°C° 0 mm 1 mps 748 mmHg 69%
19:00 +15°C° 0.2 mm 1 mps 748 mmHg 74%
20:00 +14°C° 0.2 mm 2 mps 748 mmHg 80%
21:00 +13°C° 0.2 mm 2 mps 748 mmHg 85%
22:00 +13°C° 1.2 mm 2 mps 748 mmHg 88%
23:00 +13°C° 1.2 mm 2 mps 748 mmHg 92%

27 April, Tuesday

Time Temperature Precipitation Wind Pressure Humidity
00:00 +12°C° 1.2 mm 2 mps 748 mmHg 95%
01:00 +12°C° 0.1 mm 2 mps 748 mmHg 95%
02:00 +12°C° 0.1 mm 2 mps 748 mmHg 94%
03:00 +12°C° 0.1 mm 2 mps 748 mmHg 94%
04:00 +12°C° 0.1 mm 2 mps 748 mmHg 94%
05:00 +11°C° 0.1 mm 3 mps 749 mmHg 94%
06:00 +10°C° 0.1 mm 3 mps 749 mmHg 94%
07:00 +10°C° 0.4 mm 3 mps 749 mmHg 94%
08:00 +10°C° 0.4 mm 3 mps 749 mmHg 94%
09:00 +10°C° 0.4 mm 3 mps 750 mmHg 94%
10:00 +10°C° 0.6 mm 3 mps 750 mmHg 94%
11:00 +10°C° 0.6 mm 3 mps 750 mmHg 93%
12:00 +10°C° 0.6 mm 3 mps 750 mmHg 92%
13:00 +10°C° 0.4 mm 2 mps 750 mmHg 92%
14:00 +10°C° 0.4 mm 2 mps 750 mmHg 92%
15:00 +9°C° 0.4 mm 2 mps 751 mmHg 92%
16:00 +10°C° 0.4 mm 1 mps 751 mmHg 93%
17:00 +10°C° 0.4 mm 1 mps 751 mmHg 93%
18:00 +9°C° 0.4 mm 0 mps 751 mmHg 94%
19:00 +9°C° 0.2 mm 0 mps 751 mmHg 94%
20:00 +9°C° 0.2 mm 0 mps 752 mmHg 95%
21:00 +9°C° 0.2 mm 0 mps 752 mmHg 95%
22:00 +10°C° 0 mm 1 mps 752 mmHg 95%
23:00 +10°C° 0 mm 1 mps 752 mmHg 94%
Show more